Location: Heiligenberg
(48.5381°N, 7.3897°E)
Time: 23:29:33
(UTC+00:00)

Cosmos 1328 - Pass Details

Date: 26 May 2022
Orbit: 524 x 551 km, 82.5° (Epoch: 26 June)

Event Time Altitude Azimuth Distance (km) Brightness Sun altitude
Exits shadow 02:52:37 - 197° (SSW) 2,207 6.4 -6.7°
Reaches altitude 10° 02:53:38 10° 199° (SSW) 1,791 5.9 -6.6°
Maximum altitude 02:57:32 64° 281° (W) 603 3.9 -6.1°
Drops below altitude 10° 03:01:32 10° 4° (N) 1,824 7.2 -5.6°
Sets 03:03:44 0° 8° (N) 2,726 8.2 -5.3°
